Overview Statistics Trail Chart Weather Telemetry Raw packets
 

This is the latest recevied weather packets stored in our database for station/object SP9TKN-1. If no packets are shown the sender has not sent any weather packets the latest 10 day(s).

<< 33 34 35 36 37 38 >>
Time Temp. Humidity Pressure Rain* Wind** Luminosity Snow
1787768381 20° C 57% 996.2 hPa - - - -
1787767481 20° C 56% 996 hPa - - - -
1787766581 20° C 54% 995.9 hPa - - - -
1787765681 20° C 53% 995.8 hPa - - - -
1787764781 20.56° C 53% 995.8 hPa - - - -
1787763880 20.56° C 53% 995.8 hPa - - - -
1787762981 20.56° C 52% 995.7 hPa - - - -
1787762080 20.56° C 51% 995.6 hPa - - - -
1787761180 21.11° C 50% 995.5 hPa - - - -
1787760281 21.11° C 50% 995.6 hPa - - - -
1787759379 21.67° C 48% 995.5 hPa - - - -
1787758479 21.67° C 47% 995.5 hPa - - - -
1787757580 22.22° C 46% 995.4 hPa - - - -
1787756679 22.78° C 45% 995.5 hPa - - - -
1787755779 22.78° C 44% 995.3 hPa - - - -
1787754881 22.78° C 44% 995.4 hPa - - - -
1787753981 22.78° C 44% 995.5 hPa - - - -
1787753081 22.78° C 42% 995.5 hPa - - - -
1787752181 22.78° C 42% 995.5 hPa - - - -
1787751281 23.33° C 41% 995.4 hPa - - - -
1787749481 23.33° C 41% 995.6 hPa - - - -
1787748581 22.78° C 41% 995.7 hPa - - - -
1787747680 23.33° C 40% 995.7 hPa - - - -
1787746780 23.33° C 39% 995.7 hPa - - - -
1787745880 22.78° C 40% 995.7 hPa - - - -

* Rain since midnight (hover to see other rain measurements)
** Current wind speed in m/s (hover to see current wind gust speed)